Date String (YYYY-MM-DD hh:mm:ss) UTC,Instrument flags,Ambient pressure (hPa),Sample flow (lpm),Bypass flow (lpm),Sample temperature (°C),Ambient temperature (°C),ASC tube jacket temperature (°C),LED temperature (°C),Box temperature (°C),Sample RH (%),Span deviation,Mass concentration (μg/m³),Mass concentration (μg/m³),Mass concentration (μg/m³)
DateTimeUTC,F1_M11,P_M11,Q1_M11,Q2_M11,T1_M11,T2_M11,T3_M11,T4_M11,T5_M11,U1_M11,ZSPAN_M11,X0_M11,X2_M11,X1_M11
2022-09-29 03:00:00,,0831.2,5.01,0.00,30.2,29.1,00.0,38.8,32.1,13.7,0000.0,0012.62,0004.66,0003.77
2022-09-29 03:01:00,,0831.2,4.99,0.00,30.2,29.1,00.0,38.8,32.1,13.7,0000.0,0012.62,0004.67,0003.77
2022-09-29 03:02:00,,0831.2,5.01,0.00,30.2,29.1,00.0,38.8,32.1,13.7,0000.0,0012.37,0004.66,0003.78
2022-09-29 03:03:00,,0831.2,5.00,0.00,30.2,29.2,00.0,38.9,32.1,13.7,0000.0,0012.55,0004.63,0003.78
2022-09-29 03:04:00,,0831.2,5.00,0.00,30.3,29.2,00.0,38.9,32.1,13.7,0000.0,0012.33,0004.61,0003.77
2022-09-29 03:05:00,,0831.2,5.00,0.00,30.3,29.3,00.0,38.9,32.2,13.9,0000.0,0011.70,0004.65,0003.78
2022-09-29 03:06:00,,0831.2,4.99,0.00,30.3,29.3,00.0,38.9,32.2,14.0,0000.0,0011.23,0004.67,0003.77
2022-09-29 03:07:00,,0831.2,5.01,0.00,30.4,29.2,00.0,39.0,32.2,13.8,0000.0,0011.18,0004.65,0003.75
2022-09-29 03:08:00,,0831.2,5.01,0.00,30.3,27.8,00.0,38.9,32.2,13.8,0000.0,0010.85,0004.66,0003.74
2022-09-29 03:09:00,,0831.1,5.00,0.00,30.3,27.0,00.0,38.9,32.1,13.7,0000.0,0010.19,0004.68,0003.74
2022-09-29 03:10:00,,0831.2,4.99,0.00,30.2,27.1,00.0,38.9,31.9,13.8,0000.0,0010.59,0004.68,0003.73
2022-09-29 03:11:00,,0831.2,4.99,0.00,30.1,27.3,00.0,38.8,31.8,13.9,0000.0,0010.95,0004.68,0003.72
2022-09-29 03:12:00,,0831.2,5.00,0.00,30.1,27.6,00.0,38.8,31.8,13.8,0000.0,0011.12,0004.64,0003.71
2022-09-29 03:13:00,,0831.1,5.00,0.00,30.1,27.9,00.0,38.8,31.8,13.8,0000.0,0011.58,0004.62,0003.70
2022-09-29 03:14:00,,0831.2,5.01,0.00,30.1,28.2,00.0,38.8,31.9,13.7,0000.0,0011.87,0004.62,0003.68
2022-09-29 03:15:00,,0831.2,4.99,0.00,30.1,28.4,00.0,38.8,31.9,13.8,0000.0,0011.68,0004.60,0003.67
2022-09-29 03:16:00,,0831.2,5.01,0.00,30.1,28.5,00.0,38.8,31.9,13.9,0000.0,0011.83,0004.58,0003.68
2022-09-29 03:17:00,,0831.2,4.99,0.00,30.1,28.6,00.0,38.8,31.9,13.9,0000.0,0011.80,0004.50,0003.67
2022-09-29 03:18:00,,0831.2,5.01,0.00,30.1,28.8,00.0,38.8,32.0,13.9,0000.0,0011.77,0004.46,0003.67
2022-09-29 03:19:00,,0831.2,4.99,0.00,30.1,28.9,00.0,38.8,32.0,14.1,0000.0,0013.43,0004.44,0003.67
2022-09-29 03:20:00,,0831.2,5.01,0.00,30.1,28.9,00.0,38.8,32.0,14.1,0000.0,0013.79,0004.44,0003.66
2022-09-29 03:21:00,,0831.2,4.99,0.00,30.2,29.0,00.0,38.8,32.0,14.1,0000.0,0013.01,0004.41,0003.66
2022-09-29 03:22:00,,0831.2,5.00,0.00,30.2,29.0,00.0,38.8,32.1,14.1,0000.0,0013.31,0004.38,0003.66
2022-09-29 03:23:00,,0831.2,5.01,0.00,30.2,29.1,00.0,38.9,32.1,14.0,0000.0,0013.56,0004.35,0003.66
2022-09-29 03:24:00,,0831.2,5.00,0.00,30.2,29.2,00.0,38.9,32.1,14.0,0000.0,0013.05,0004.32,0003.66
2022-09-29 03:25:00,,0831.2,5.01,0.00,30.3,29.2,00.0,38.9,32.1,14.0,0000.0,0013.79,0004.29,0003.67
2022-09-29 03:26:00,,0831.2,4.99,0.00,30.3,29.2,00.0,38.9,32.2,14.0,0000.0,0014.36,0004.26,0003.68
2022-09-29 03:27:00,,0831.1,5.00,0.00,30.3,29.2,00.0,38.9,32.2,14.0,0000.0,0014.15,0004.23,0003.68
2022-09-29 03:28:00,,0831.2,5.01,0.00,30.3,28.9,00.0,39.0,32.2,14.0,0000.0,0014.15,0004.26,0003.69
2022-09-29 03:29:00,,0831.2,5.01,0.00,30.3,27.5,00.0,38.9,32.1,14.1,0000.0,0014.36,0004.28,0003.69
2022-09-29 03:30:00,,0831.2,5.00,0.00,30.3,26.9,00.0,38.9,32.0,14.1,0000.0,0013.18,0004.28,0003.70
2022-09-29 03:31:00,,0831.2,5.00,0.00,30.2,27.0,00.0,38.9,31.9,14.2,0000.0,0012.04,0004.27,0003.70
2022-09-29 03:32:00,,0831.2,4.99,0.00,30.1,27.3,00.0,38.8,31.8,14.3,0000.0,0012.10,0004.24,0003.71
2022-09-29 03:33:00,,0831.2,5.00,0.00,30.1,27.6,00.0,38.8,31.7,14.2,0000.0,0011.71,0004.27,0003.71
2022-09-29 03:34:00,,0831.2,4.99,0.00,30.0,27.9,00.0,38.8,31.7,14.1,0000.0,0010.75,0004.28,0003.70
2022-09-29 03:35:00,,0831.2,5.00,0.00,30.0,28.2,00.0,38.8,31.8,14.2,0000.0,0010.86,0004.31,0003.70
2022-09-29 03:36:00,,0831.2,5.01,0.00,30.0,28.3,00.0,38.8,31.9,14.2,0000.0,0009.69,0004.33,0003.70
2022-09-29 03:37:00,,0831.1,4.99,0.00,30.0,28.5,00.0,38.8,31.9,14.1,0000.0,0008.93,0004.37,0003.70
2022-09-29 03:38:00,,0831.2,5.01,0.00,30.0,28.6,00.0,38.8,31.9,14.0,0000.0,0009.30,0004.38,0003.69
2022-09-29 03:39:00,,0831.2,4.99,0.00,30.1,28.7,00.0,38.8,31.9,14.0,0000.0,0009.53,0004.39,0003.67
2022-09-29 03:40:00,,0831.2,5.01,0.00,30.1,28.8,00.0,38.8,31.9,14.0,0000.0,0009.68,0004.39,0003.67
2022-09-29 03:41:00,,0831.2,4.99,0.00,30.1,28.8,00.0,38.8,32.0,13.9,0000.0,0010.36,0004.39,0003.66
2022-09-29 03:42:00,,0831.2,5.01,0.00,30.1,28.9,00.0,38.8,32.0,13.9,0000.0,0010.88,0004.38,0003.66
2022-09-29 03:43:00,,0831.1,5.00,0.00,30.1,28.9,00.0,38.8,32.0,13.9,0000.0,0010.78,0004.41,0003.66
2022-09-29 03:44:00,,0831.2,5.01,0.00,30.2,29.0,00.0,38.8,32.0,13.9,0000.0,0010.66,0004.39,0003.66
2022-09-29 03:45:00,,0831.2,4.99,0.00,30.2,29.0,00.0,38.8,32.1,13.9,0000.0,0010.90,0004.41,0003.67
2022-09-29 03:46:00,,0831.2,5.01,0.00,30.2,29.1,00.0,38.9,32.1,13.8,0000.0,0011.01,0004.42,0003.68
2022-09-29 03:47:00,,0831.2,4.99,0.00,30.2,29.1,00.0,38.9,32.1,13.8,0000.0,0011.03,0004.45,0003.69
2022-09-29 03:48:00,,0831.1,4.99,0.00,30.2,29.1,00.0,38.9,32.1,13.6,0000.0,0010.96,0004.48,0003.70
2022-09-29 03:49:00,,0831.2,5.01,0.00,30.3,29.2,00.0,38.9,32.1,13.4,0000.0,0010.59,0004.49,0003.69
2022-09-29 03:50:00,,0831.2,4.99,0.00,30.3,29.2,00.0,38.9,32.1,13.4,0000.0,0010.22,0004.51,0003.71
2022-09-29 03:51:00,,0831.1,5.01,0.00,30.3,29.2,00.0,38.9,32.2,13.3,0000.0,0010.57,0004.52,0003.71
2022-09-29 03:52:00,,0831.1,4.99,0.00,30.3,29.2,00.0,39.0,32.2,13.2,0000.0,0009.82,0004.48,0003.70
2022-09-29 03:53:00,,0831.2,5.01,0.00,30.4,29.3,00.0,39.0,32.2,13.1,0000.0,0009.74,0004.48,0003.69
2022-09-29 03:54:00,,0831.2,4.99,0.00,30.4,29.3,00.0,39.0,32.2,13.1,0000.0,0009.81,0004.47,0003.69
2022-09-29 03:55:00,,0831.2,5.01,0.00,30.4,29.3,00.0,39.0,32.3,13.0,0000.0,0009.74,0004.47,0003.68
2022-09-29 03:56:00,,0831.2,4.99,0.00,30.4,29.2,00.0,39.0,32.3,13.2,0000.0,0009.61,0004.44,0003.67
2022-09-29 03:57:00,,0831.1,5.01,0.00,30.4,27.9,00.0,39.0,32.2,13.5,0000.0,0009.44,0004.44,0003.66
2022-09-29 03:58:00,,0831.2,5.01,0.00,30.4,27.0,00.0,39.0,32.1,13.4,0000.0,0009.59,0004.43,0003.65
2022-09-29 03:59:00,,0831.2,5.00,0.00,30.3,27.0,00.0,38.9,32.0,13.3,0000.0,0010.14,0004.38,0003.64
